Date String (YYYY-MM-DD hh:mm:ss) UTC,Instrument flags,absolute air pressure of the measurement (hPa),sample flow rate (lpm),inlet stack bypass flow (lpm),air temperature of the measurement (°C),ambient temperature measured by the external sensor (°C),aerosol sample conditioner tube jacket temperature (°C),OPC LED temperature (°C),internal box temperature (°C),relative humidity of the measurement (%),span deviation,mass concentration of particles derived from Lorenz-Mie calculation of OPC scattering (μg/m³),mass concentration of particles derived from Lorenz-Mie calculation of OPC scattering (μg/m³),mass concentration of particles derived from Lorenz-Mie calculation of OPC scattering (μg/m³)
DateTimeUTC,F1_M11,P_M11,Q1_M11,Q2_M11,T1_M11,T2_M11,T3_M11,T4_M11,T5_M11,U1_M11,ZSPAN_M11,X0_M11,X2_M11,X1_M11
2023-07-10 08:00:00,SystemResetWarning,0831.4,5.00,000.00,029.7,025.9,000.0,038.0,031.0,31.6,0000.0,0011.60,0007.78,0007.23
2023-07-10 08:01:00,SystemResetWarning,0831.3,5.01,000.00,029.6,025.2,000.0,037.9,030.8,31.7,0000.0,0011.67,0007.81,0007.23
2023-07-10 08:02:00,SystemResetWarning,0831.3,5.01,000.00,029.4,025.4,000.0,037.9,030.5,31.7,0000.0,0011.70,0007.81,0007.22
2023-07-10 08:03:00,SystemResetWarning,0831.3,5.00,000.00,029.3,025.7,000.0,037.9,030.5,31.8,0000.0,0011.53,0007.79,0007.21
2023-07-10 08:04:00,SystemResetWarning,0831.3,4.99,000.00,029.3,026.2,000.0,037.9,030.6,32.1,0000.0,0011.38,0007.74,0007.20
2023-07-10 08:05:00,SystemResetWarning,0831.3,5.00,000.00,029.3,026.5,000.0,037.9,030.6,31.9,0000.0,0011.61,0007.76,0007.21
2023-07-10 08:06:00,SystemResetWarning,0831.3,5.00,000.00,029.3,026.9,000.0,037.9,030.7,31.8,0000.0,0011.71,0007.77,0007.20
2023-07-10 08:07:00,SystemResetWarning,0831.3,5.00,000.00,029.3,027.1,000.0,037.9,030.7,31.7,0000.0,0011.83,0007.76,0007.19
2023-07-10 08:08:00,SystemResetWarning,0831.3,5.00,000.00,029.3,027.4,000.0,037.9,030.8,31.8,0000.0,0011.99,0007.76,0007.19
2023-07-10 08:09:00,SystemResetWarning,0831.3,4.99,000.00,029.3,027.5,000.0,037.9,030.8,31.9,0000.0,0011.95,0007.73,0007.19
2023-07-10 08:10:00,SystemResetWarning,0831.3,5.00,000.00,029.3,027.7,000.0,037.9,030.9,31.7,0000.0,0011.45,0007.68,0007.16
2023-07-10 08:11:00,SystemResetWarning,0831.3,5.00,000.00,029.3,027.8,000.0,037.9,030.9,31.6,0000.0,0011.17,0007.65,0007.16
2023-07-10 08:12:00,SystemResetWarning,0831.3,4.99,000.00,029.4,027.9,000.0,037.9,030.9,31.6,0000.0,0011.06,0007.61,0007.15
2023-07-10 08:13:00,SystemResetWarning,0831.3,4.99,000.00,029.4,028.0,000.0,037.9,031.0,31.7,0000.0,0011.04,0007.61,0007.15
2023-07-10 08:14:00,SystemResetWarning,0831.2,5.00,000.00,029.4,028.1,000.0,037.9,031.0,31.6,0000.0,0010.80,0007.62,0007.16
2023-07-10 08:15:00,SystemResetWarning,0831.2,5.00,000.00,029.5,028.2,000.0,038.0,031.0,31.4,0000.0,0010.83,0007.64,0007.15
2023-07-10 08:16:00,SystemResetWarning,0831.2,5.01,000.00,029.5,028.2,000.0,038.0,031.1,31.2,0000.0,0010.67,0007.61,0007.14
2023-07-10 08:17:00,SystemResetWarning,0831.2,5.00,000.00,029.5,028.3,000.0,038.0,031.1,31.1,-000.0,0010.62,0007.59,0007.13
2023-07-10 08:18:00,SystemResetWarning,0831.2,5.00,000.00,029.5,028.3,000.0,038.0,031.1,31.0,-000.9,0010.64,0007.59,0007.13
2023-07-10 08:19:00,SystemResetWarning,0831.2,4.98,000.00,029.5,028.3,000.0,038.0,031.1,31.0,0000.0,0010.46,0007.59,0007.14
2023-07-10 08:20:00,SystemResetWarning,0831.2,5.00,000.00,029.6,028.4,000.0,038.1,031.2,30.9,0000.0,0010.48,0007.61,0007.14
2023-07-10 08:21:00,SystemResetWarning,0831.2,5.01,000.00,029.6,028.4,000.0,038.1,031.2,30.8,0000.0,0010.52,0007.61,0007.13
2023-07-10 08:22:00,SystemResetWarning,0831.2,4.99,000.00,029.6,028.4,000.0,038.1,031.2,30.8,0000.0,0011.73,0007.60,0007.12
2023-07-10 08:23:00,SystemResetWarning,0831.2,4.99,000.00,029.6,028.5,000.0,038.1,031.3,31.0,0000.0,0012.61,0007.61,0007.11
2023-07-10 08:24:00,SystemResetWarning,0831.2,5.00,000.00,029.7,028.5,000.0,038.1,031.3,30.8,0000.0,0012.86,0007.64,0007.08
2023-07-10 08:25:00,SystemResetWarning,0831.2,5.01,000.00,029.7,028.5,000.0,038.2,031.3,30.6,0000.0,0013.00,0007.63,0007.04
2023-07-10 08:26:00,SystemResetWarning,0831.2,5.00,000.00,029.7,028.5,000.0,038.2,031.3,30.6,0000.0,0013.10,0007.62,0007.02
2023-07-10 08:27:00,SystemResetWarning,0831.2,4.99,000.00,029.7,027.1,000.0,038.1,031.2,30.5,-001.3,0013.11,0007.62,0007.01
2023-07-10 08:28:00,SystemResetWarning,0831.1,5.00,000.00,029.6,025.6,000.0,038.0,031.0,30.5,-000.5,0013.02,0007.60,0007.00
2023-07-10 08:29:00,SystemResetWarning,0831.1,5.00,000.00,029.5,025.2,000.0,037.9,030.7,30.6,-001.4,0013.05,0007.61,0007.00
2023-07-10 08:30:00,SystemResetWarning,0831.1,5.01,000.00,029.4,025.4,000.0,037.9,030.5,31.0,0000.0,0013.70,0007.60,0007.00
2023-07-10 08:31:00,SystemResetWarning,0831.1,5.01,000.00,029.3,025.8,000.0,037.9,030.5,31.2,-000.4,0013.80,0007.58,0006.98
2023-07-10 08:32:00,SystemResetWarning,0831.1,5.00,000.00,029.3,026.2,000.0,037.9,030.6,31.0,-001.4,0013.78,0007.57,0006.97
2023-07-10 08:33:00,SystemResetWarning,0831.1,5.00,000.00,029.3,026.6,000.0,037.9,030.7,31.0,-001.0,0013.27,0007.58,0006.97
2023-07-10 08:34:00,SystemResetWarning,0831.1,5.00,000.00,029.3,026.9,000.0,037.9,030.7,31.2,-001.2,0011.98,0007.59,0006.96
2023-07-10 08:35:00,SystemResetWarning,0831.1,5.00,000.00,029.3,027.2,000.0,037.9,030.8,31.3,-001.2,0011.59,0007.55,0006.97
2023-07-10 08:36:00,SystemResetWarning,0831.1,5.00,000.00,029.3,027.4,000.0,037.9,030.8,31.6,-000.8,0011.77,0007.51,0006.98
2023-07-10 08:37:00,SystemResetWarning,0831.1,5.00,000.00,029.3,027.6,000.0,037.9,030.8,30.9,-001.0,0011.66,0007.49,0007.00
2023-07-10 08:38:00,SystemResetWarning,0831.1,5.00,000.00,029.3,027.7,000.0,037.9,030.9,30.7,-001.0,0011.63,0007.50,0007.01
2023-07-10 08:39:00,SystemResetWarning,0831.2,5.00,000.00,029.4,027.8,000.0,037.9,030.9,30.5,-000.7,0011.70,0007.52,0007.01
2023-07-10 08:40:00,SystemResetWarning,0831.2,5.00,000.00,029.4,027.9,000.0,037.9,031.0,30.2,-000.6,0011.60,0007.50,0007.01
2023-07-10 08:41:00,SystemResetWarning,0831.1,5.00,000.00,029.4,028.0,000.0,037.9,031.0,30.0,-000.5,0011.22,0007.52,0007.00
2023-07-10 08:42:00,SystemResetWarning,0831.1,5.00,000.00,029.4,028.1,000.0,037.9,031.0,30.0,-001.0,0011.36,0007.53,0007.00
2023-07-10 08:43:00,SystemResetWarning,0831.1,5.00,000.00,029.5,028.1,000.0,038.0,031.0,29.9,0000.0,0011.63,0007.54,0007.00
2023-07-10 08:44:00,SystemResetWarning,0831.1,4.98,000.00,029.5,028.2,000.0,038.0,031.0,29.7,0000.0,0011.61,0007.52,0006.99
2023-07-10 08:45:00,SystemResetWarning,0831.1,5.01,000.00,029.5,028.2,000.0,038.0,031.1,29.8,0000.0,0011.56,0007.49,0006.98
2023-07-10 08:46:00,SystemResetWarning,0831.1,5.01,000.00,029.5,028.3,000.0,038.0,031.1,29.7,0000.0,0011.66,0007.51,0006.97
2023-07-10 08:47:00,SystemResetWarning,0831.1,4.98,000.00,029.5,028.3,000.0,038.0,031.1,29.6,0000.0,0011.30,0007.49,0006.95
2023-07-10 08:48:00,SystemResetWarning,0831.0,5.00,000.00,029.6,028.3,000.0,038.0,031.2,29.6,0000.0,0011.12,0007.46,0006.92
2023-07-10 08:49:00,SystemResetWarning,0831.0,5.01,000.00,029.6,028.4,000.0,038.1,031.2,29.7,0000.0,0011.41,0007.42,0006.89
2023-07-10 08:50:00,SystemResetWarning,0831.1,5.01,000.00,029.6,028.4,000.0,038.1,031.2,29.3,0000.0,0011.78,0007.40,0006.87
2023-07-10 08:51:00,SystemResetWarning,0831.1,4.99,000.00,029.6,028.4,000.0,038.1,031.2,29.3,0000.0,0011.78,0007.40,0006.84
2023-07-10 08:52:00,SystemResetWarning,0831.0,5.00,000.00,029.7,028.4,000.0,038.1,031.2,29.6,-000.6,0011.90,0007.34,0006.81
2023-07-10 08:53:00,SystemResetWarning,0830.9,5.00,000.00,029.7,028.5,000.0,038.1,031.3,29.2,-001.4,0011.64,0007.29,0006.79
2023-07-10 08:54:00,SystemResetWarning,0830.9,5.00,000.00,029.7,028.5,000.0,038.1,031.3,29.1,-001.6,0011.18,0007.25,0006.75
2023-07-10 08:55:00,SystemResetWarning,0830.9,5.00,000.00,029.7,028.5,000.0,038.2,031.3,29.2,-002.0,0011.26,0007.24,0006.73
2023-07-10 08:56:00,SystemResetWarning,0830.9,5.00,000.00,029.7,028.5,000.0,038.2,031.3,29.0,-002.3,0012.10,0007.24,0006.70
2023-07-10 08:57:00,SystemResetWarning,0830.9,4.99,000.00,029.8,028.6,000.0,038.2,031.3,29.0,-001.9,0012.09,0007.21,0006.68
2023-07-10 08:58:00,SystemResetWarning,0830.9,5.01,000.00,029.8,028.6,000.0,038.2,031.3,28.8,-002.0,0012.04,0007.19,0006.66
2023-07-10 08:59:00,SystemResetWarning,0830.9,5.00,000.00,029.8,028.2,000.0,038.2,031.3,28.6,-002.3,0012.08,0007.19,0006.64
